Simultaneous Nadir Overpasses (SNOs) Predictions

Prediction of SNOs between AQUA and NOAA-19 Satellite Orbit:

Table of predicted SNOs for the next 14.0 days since TLE Epoch: 4/26/2015
Index Date (AQUA) Time (AQUA) Lat,Lon (AQUA) SZA (AQUA ) Date (NOAA-19) Time (NOAA-19) Lat,Lon (NOAA-19) SZA (NOAA-19 ) Distance(km) Time Diff (sec)
1 04/27/2015 05:34:44 79.82, 67.54 67.31 04/27/2015 05:33:39 79.82, 67.53 67.33 0.15 65
2 04/27/2015 06:24:07 -79.70,-123.89 112.90 04/27/2015 06:24:40 -79.70,-124.02 112.89 2.57 33
3 04/29/2015 11:08:26 -79.76, 164.54 113.50 04/29/2015 11:08:06 -79.76, 164.60 113.50 1.20 20
4 04/29/2015 11:57:48 79.59, -26.58 66.24 04/29/2015 11:58:58 79.59, -26.45 66.20 2.71 70
5 05/01/2015 15:52:45 -79.85, 92.79 114.03 05/01/2015 15:51:33 -79.85, 92.84 114.01 1.03 72
6 05/01/20
